Location: Newark
(33.4453°N, 112.0669°W)
Time: 00:39:21
(UTC+00:00)

Vanguard 2 - All Passes

Search period start: 29 February 2020 00:00
Search period end: 10 March 2020 00:00
Orbit: 552 x 2939 km, 32.9° (Epoch: 28 February)

Date Brightness Start Highest point End Pass type
(mag) Time Alt. Az. Time Alt. Az. Time Alt. Az.
29 Feb - 06:18:11 10° SSW 06:22:40 30° SE 06:29:11 10° E night (unlit)
29 Feb - 08:24:27 10° WSW 08:30:57 78° SSE 08:42:13 10° E visible
29 Feb - 10:32:19 10° W 10:41:11 85° S 10:56:11 10° E visible
29 Feb - 12:41:02 10° W 12:52:33 61° SSW 13:09:24 10° SE visible
29 Feb - 14:51:58 10° W 15:04:14 32° SW 15:18:43 10° SSE daylight
01 Mar - 06:35:25 10° SW 06:40:12 41° SSE 06:47:37 10° E night (unlit)
01 Mar - 08:42:16 10° W 08:48:56 85° S 09:00:31 10° E visible
01 Mar - 10:50:13 10° W 10:59:18 80° S 11:14:27 10° ESE visible
01 Mar - 12:59:08 10° W 13:10:35 52° SSW 13:26:56 10° SE visible
01 Mar - 15:11:10 10° W 15:22:07 24° SW 15:34:41 10° S daylight
02 Mar - 04:49:15 10° SSE 04:50:38 11° SE 04:52:07 10° ESE night (unlit)
02 Mar - 06:52:53 10° SW 06:57:53 55° SSE 07:05:53 10° E night (unlit)
02 Mar - 09:00:08 10° W 09:06:57 87° S 09:18:50 10° E visible
02 Mar - 11:08:08 10° W 11:17:22 73° SSW 11:32:35 10° ESE visible
02 Mar - 13:17:22 10° W 13:28:36 43° SSW 13:44:09 10° SE visible
02 Mar - 15:31:21 10° WSW 15:40:02 17° SW 15:49:39 10° S daylight
03 Mar - 05:04:58 10° S 05:08:03 18° SE 05:11:51 10° E night (unlit)
03 Mar - 07:10:33 10° WSW 07:15:41 68° SSE 07:24:06 10° E night (unlit)
03 Mar - 09:18:00 10° W 09:24:59 86° S 09:37:10 10° E visible
03 Mar - 11:26:05 10° W 11:35:24 63° SSW 11:50:31 10° ESE visible
03 Mar - 13:35:50 10° W 13:46:36 34° SSW 14:00:57 10° SSE daylight
03 Mar - 15:54:43 10° SW 15:58:02 11° SW 16:01:28 10° SSW daylight
04 Mar - 05:21:52 10° SSW 05:25:35 28° SSE 05:30:30 10° E night (unlit)
04 Mar - 07:28:18 10° WSW 07:33:35 79° SSE 07:42:19 10° E night (unlit)
04 Mar - 09:35:53 10° W 09:43:01 82° S 09:55:26 10° ESE visible
04 Mar - 11:44:05 10° W 11:53:26 54° SSW 12:08:13 10° SE visible
04 Mar - 13:54:43 10° W 14:04:37 26° SSW 14:17:14 10° SSE daylight
05 Mar - 05:39:09 10° SW 05:43:12 40° SSE 05:48:49 10° E night (unlit)
05 Mar - 07:46:08 10° W 07:51:31 85° S 08:00:33 10° E visible
05 Mar - 09:53:45 10° W 10:01:02 74° SSW 10:13:37 10° ESE visible
05 Mar - 12:02:13 10° W 12:11:28 44° SSW 12:25:36 10° SE visible
05 Mar - 14:14:19 10° WSW 14:22:39 19° SW 14:32:42 10° S daylight
06 Mar - 03:52:16 10° SSE 03:53:31 11° SE 03:54:48 10° SE night (unlit)
06 Mar - 05:56:43 10° WSW 06:00:55 55° SSE 06:07:00 10° E night (unlit)
06 Mar - 08:03:59 10° W 08:09:30 87° S 08:18:48 10° E visible
06 Mar - 10:11:39 10° W 10:19:02 65° SSW 10:31:38 10° ESE visible
06 Mar - 12:20:32 10° W 12:29:31 35° SSW 12:42:37 10° SSE visible
06 Mar - 14:35:43 10° WSW 14:40:45 12° SW 14:46:17 10° SSW daylight
07 Mar - 04:08:16 10° SSW 04:11:06 19° SSE 04:14:14 10° ESE night (unlit)
07 Mar - 06:14:25 10° WSW 06:18:44 70° SSE 06:25:07 10° E night (unlit)
07 Mar - 08:21:50 10° W 08:27:28 83° S 08:37:01 10° E visible
07 Mar - 10:29:36 10° W 10:37:03 54° SSW 10:49:27 10° SE visible
07 Mar - 12:39:12 10° W 12:47:35 27° SSW 12:59:08 10° SSE visible
08 Mar - 04:25:18 10° SW 04:28:45 29° SSE 04:32:42 10° E night (unlit)
08 Mar - 06:32:13 10° W 06:36:37 81° S 06:43:14 10° E night (unlit)
08 Mar - 08:39:41 10° W 08:45:26 76° S 08:55:11 10° ESE visible
08 Mar - 10:47:39 10° W 10:55:03 44° SSW 11:06:58 10° SE visible
08 Mar - 12:58:27 10° WSW 13:05:41 19° SSW 13:14:55 10° S visible
09 Mar - 04:42:43 10° SW 04:46:27 42° SSE 04:50:54 10° E night (unlit)
09 Mar - 06:50:03 10° W 06:54:33 86° S 07:01:23 10° E night (unlit)
09 Mar - 08:57:33 10° W 09:03:24 66° SSW 09:13:14 10° ESE visible
09 Mar - 11:05:52 10° W 11:13:06 34° SSW 11:24:09 10° SSE visible
09 Mar - 13:19:12 10° SW 13:23:50 13° SSW 13:29:09 10° S visible
